x

8771013 - Eagle Point, Tx (eptt2) Weather Station

11:54pm - Mon 20th Nov 2017 All times are CST. -6 hours from GMT.

  • Wind
    8mph, 10mph gusts
  • Sea Temp 63°f
  • Air Temp 65°f
  • Sea Pressure 1016.3mb
  • 8771013 - Eagle Point, Tx
  • 8771013 - Eagle Point, Tx

More Historic Weather Station data

Upgrade to MSW Pro to gain access to the past 30 days of data for over 8000 Wavebouys and Weather Stations around the globe.

Join

Comparision Forecast

View Surf forecast
   
Mon 11/20 11:54pm 8 10 mph 1016.3mb 63f 65f
11:48pm 9 11 mph 1016.3mb 63f 65f
11:42pm 10 11 mph 1016.3mb 63f 65f
11:36pm 9 13 mph 1016.3mb 63f 65f
11:30pm 11 13 mph 1016.4mb 63f 65f
11:24pm 9 11 mph 1016.6mb 63f 65f
11:18pm 10 13 mph 1016.6mb 63f 65f
11:12pm 11 13 mph 1016.5mb 63f 65f
11:06pm 11 14 mph 1016.5mb 63f 65f
11:00pm 14 16 mph 1016.3mb 63f 65f
10:54pm 13 15 mph 1016.3mb 63f 64f
10:48pm 14 16 mph 1016.4mb 63f 64f
10:42pm 14 14 mph 1016.6mb 63f 64f
10:36pm 13 14 mph 1016.7mb 63f 64f
10:30pm 11 14 mph 1016.9mb 63f 64f
10:24pm 13 14 mph 1016.9mb 63f 64f
10:18pm 10 13 mph 1017mb 63f 64f
10:12pm 13 15 mph 1017mb 63f 64f
10:06pm 11 13 mph 1017.1mb 63f 64f
10:00pm 11 14 mph 1017.3mb 63f 64f
9:54pm 13 15 mph 1017.3mb 63f 64f
9:48pm 11 14 mph 1017.2mb 63f 64f
9:42pm 11 15 mph 1017.1mb 63f 64f
9:36pm 14 16 mph 1017mb 63f 64f
9:30pm 14 16 mph 1017.1mb 63f 64f
9:24pm 14 15 mph 1017.2mb 63f 64f
9:18pm 11 15 mph 1017.3mb 63f 63f
9:12pm 14 14 mph 1017.4mb 63f 64f
9:06pm 11 14 mph 1017.5mb 63f 63f
9:00pm 14 15 mph 1017.5mb 63f 63f
8:54pm 13 14 mph 1017.6mb 63f 63f
8:48pm 13 14 mph 1017.6mb 63f 63f
8:42pm 11 15 mph 1017.7mb 63f 63f
8:36pm 13 14 mph 1017.8mb 63f 63f
8:30pm 11 14 mph 1017.8mb 63f 63f
8:24pm 11 14 mph 1017.8mb 63f 63f
8:18pm 10 14 mph 1017.8mb 63f 63f
8:12pm 14 15 mph 1017.8mb 63f 63f
8:06pm 11 13 mph 1017.9mb 63f 63f
8:00pm 11 15 mph 1017.9mb 63f 63f
7:54pm 13 14 mph 1017.8mb 63f 63f
7:48pm 10 13 mph 1018mb 63f 63f
7:42pm 11 14 mph 1018.1mb 63f 63f
7:36pm 11 13 mph 1018.1mb 63f 63f
7:30pm 10 13 mph 1018.1mb 63f 63f
7:24pm 11 14 mph 1018.1mb 63f 63f
7:18pm 10 13 mph - - -
7:12pm 11 13 mph 1018.2mb 63f 63f
7:06pm 10 11 mph 1018.3mb 63f 62f
7:00pm 10 11 mph 1018.3mb 63f 62f
6:48pm 10 14 mph 1018.4mb 63f 63f
6:42pm 11 13 mph 1018.3mb 63f 62f
6:36pm 10 13 mph 1018.3mb 63f 62f
6:30pm 10 11 mph 1018.4mb 63f 62f
6:24pm 10 13 mph 1018.4mb 63f 62f
6:18pm 11 13 mph - - -
6:12pm 10 13 mph 1018.3mb 63f 62f
6:06pm 9 13 mph 1018.3mb 63f 62f
6:00pm 11 14 mph 1018.3mb 63f 62f
5:54pm 11 13 mph 1018.2mb 63f 62f
5:48pm 11 14 mph 1018.2mb 63f 62f
5:42pm 11 14 mph 1018.3mb 63f 62f
5:36pm 10 13 mph 1018.3mb 63f 62f
5:30pm 11 14 mph 1018.2mb 63f 62f
5:24pm 11 13 mph 1018.3mb 63f 62f
5:18pm 10 13 mph 1018.4mb 63f 62f
5:12pm 10 14 mph 1018.4mb 63f 62f
5:06pm 11 14 mph 1018.3mb 63f 62f
5:00pm 11 14 mph 1018.4mb 63f 62f
4:54pm 13 14 mph 1018.3mb 64f 62f
4:48pm 11 14 mph - - -
4:42pm 11 14 mph 1018.5mb 64f 62f
4:36pm 11 15 mph 1018.5mb 64f 62f
4:30pm 11 14 mph 1018.6mb 64f 62f
4:24pm 11 13 mph 1018.7mb 64f 62f
4:18pm 11 14 mph - - -
4:12pm 11 14 mph 1018.7mb 64f 62f
4:06pm 13 14 mph 1018.8mb 64f 62f
4:00pm 11 14 mph 1018.9mb 64f 62f
3:54pm 11 14 mph 1018.8mb 64f 62f
3:48pm 13 14 mph 1018.9mb 64f -
3:42pm 13 14 mph 1018.8mb 64f 62f
3:36pm 11 14 mph 1018.9mb 63f 62f
3:30pm 11 14 mph 1018.9mb 64f 62f
3:24pm 11 15 mph 1018.9mb 64f 62f
3:18pm 11 13 mph 1019mb 64f 62f
3:12pm 11 14 mph 1019.1mb 63f 62f
3:06pm 11 15 mph 1019.2mb 63f 62f
3:00pm 11 13 mph 1019.3mb 63f 62f
2:54pm 9 13 mph 1019.3mb 63f 62f
2:48pm 10 13 mph 1019.3mb 63f 62f
2:42pm 13 14 mph 1019.3mb 63f 62f
2:36pm 13 14 mph 1019.5mb 63f 62f
2:30pm 10 13 mph 1019.7mb 63f 62f
2:24pm 10 13 mph 1019.8mb 63f 62f
2:18pm 10 13 mph - - -
2:12pm 11 13 mph 1020.1mb 63f 62f
2:06pm 11 15 mph 1020.2mb 63f 62f
2:00pm 11 13 mph 1020.3mb 63f 62f
1:54pm 11 14 mph 1020.3mb 63f 62f
1:48pm 10 14 mph 1020.5mb - -
1:42pm 10 13 mph 1020.6mb 63f 61f
1:36pm 13 14 mph 1020.9mb 63f 61f
1:30pm 10 13 mph 1021mb 63f 62f
1:24pm 11 13 mph 1021.1mb 63f 61f
1:18pm 9 13 mph 1021.1mb 63f 61f
1:12pm 11 14 mph 1021.2mb 63f 61f
1:06pm 9 11 mph 1021.3mb 63f 61f
1:00pm 10 11 mph 1021.3mb 63f 61f
12:54pm 9 13 mph 1021.5mb 63f 61f
12:48pm 10 11 mph 1021.6mb 63f 61f
12:42pm 10 11 mph 1021.8mb 63f 61f
12:36pm 8 11 mph 1022mb 63f 61f
12:30pm 10 11 mph 1022.2mb 63f 61f
12:24pm 9 14 mph 1022.2mb 63f 61f
12:18pm 10 13 mph 1022.2mb 63f -
12:12pm 9 11 mph 1022.4mb 63f 61f
12:06pm 10 11 mph 1022.5mb 63f 61f
12:00pm 10 13 mph 1022.5mb 63f 61f
11:54am 9 11 mph 1022.8mb 63f 60f
11:48am 10 14 mph 1023mb 63f 60f
11:42am 11 14 mph 1023.1mb 63f 60f
11:36am 11 13 mph 1023.2mb 63f 60f
11:30am 10 11 mph 1023.4mb 63f 60f
11:24am 9 13 mph 1023.5mb 63f 60f
11:18am 10 13 mph 1023.6mb 63f 60f
11:12am 10 13 mph 1023.6mb 63f 60f
11:06am 10 13 mph 1023.8mb 63f 60f
11:00am 10 13 mph 1023.9mb 63f 60f
10:54am 10 13 mph 1023.9mb 63f 60f
10:48am 11 15 mph 1023.7mb 62f 59f
10:42am 15 16 mph 1023.7mb 62f 59f
10:36am 13 15 mph 1023.6mb 62f 59f
10:30am 14 16 mph 1023.7mb 62f 59f
10:24am 15 17 mph 1023.8mb 62f 59f
10:18am 14 16 mph 1023.9mb 62f 59f
10:12am 14 16 mph 1023.9mb 62f 59f
10:06am 14 17 mph 1024mb 62f 59f
10:00am 15 18 mph 1024mb 62f 59f
9:54am 15 17 mph 1024mb 62f 58f
9:48am 15 17 mph 1023.9mb 62f 59f
9:42am 15 18 mph 1023.9mb 62f 58f
9:36am 14 17 mph 1023.9mb 62f 58f
9:30am 15 17 mph 1023.9mb 62f 58f
9:24am 16 17 mph 1023.8mb 62f 58f
9:18am 16 18 mph 1023.8mb 62f 58f
9:12am 17 18 mph 1023.7mb 62f 58f
9:06am 17 20 mph 1023.6mb 62f 58f
9:00am 16 21 mph 1023.6mb 62f 58f
8:54am 17 20 mph 1023.5mb 62f 58f
8:48am 16 20 mph 1023.5mb 62f 58f
8:42am 16 21 mph 1023.5mb 62f 58f
8:36am 15 18 mph 1023.4mb 62f 58f
8:30am 17 20 mph 1023.3mb 62f 57f
8:24am 16 20 mph 1023.2mb 62f 57f
8:18am 17 22 mph 1023.2mb 62f 57f
8:12am 17 20 mph 1023.2mb 62f 57f
8:06am 16 20 mph 1023.2mb 62f 57f
8:00am 16 21 mph 1023.2mb 62f 57f
7:54am 17 21 mph 1023.1mb 62f 57f
7:48am 18 21 mph 1023mb 62f 57f
7:42am 16 20 mph 1023.1mb 62f 57f
7:36am 18 21 mph 1023mb 62f 57f
7:30am 17 21 mph 1022.9mb 62f 57f
7:24am 16 20 mph 1023mb 62f 57f
7:18am 17 20 mph 1023.1mb 62f 57f
7:12am 18 21 mph 1023.1mb 62f 57f
7:06am 17 20 mph 1023.1mb 63f 57f
7:00am 17 18 mph 1023.2mb 63f 57f
6:54am 16 18 mph 1023.1mb 63f 57f
6:48am 16 18 mph 1023.2mb 63f 57f
6:42am 16 18 mph 1023mb 63f 57f
6:36am 14 17 mph 1023mb 63f 57f
6:30am 16 18 mph 1022.8mb 63f 57f
6:24am 16 17 mph 1022.9mb 63f 57f
6:18am 15 18 mph 1022.8mb 63f 57f
6:12am 16 17 mph 1022.8mb 63f 57f
6:06am 16 17 mph 1022.8mb 63f 57f
6:00am 15 17 mph 1022.7mb 63f 57f
5:54am 15 17 mph 1022.6mb 63f 58f
5:48am 15 16 mph 1022.6mb 63f 58f
5:42am 14 16 mph 1022.8mb 63f 58f
5:36am 14 16 mph 1022.8mb 63f 58f
5:30am 14 16 mph 1022.8mb 63f 57f
5:24am 15 16 mph 1022.8mb 63f 58f
5:18am 14 16 mph 1022.7mb 63f 58f
5:12am 14 16 mph 1022.6mb 63f 58f
5:06am 15 17 mph 1022.7mb 63f 57f
5:00am 14 16 mph 1022.7mb 63f 58f
4:54am 14 16 mph 1022.6mb 63f 58f
4:48am 14 16 mph 1022.7mb 63f 58f
4:42am 14 17 mph 1022.8mb 63f 57f
4:36am 15 17 mph 1022.8mb 63f 58f
4:30am 14 17 mph 1022.7mb 63f 58f
4:24am 16 18 mph 1022.6mb 63f 58f
4:18am 14 16 mph 1022.7mb 63f 58f
4:12am 15 17 mph 1022.8mb 63f 58f
4:06am 15 16 mph 1022.8mb 63f 58f
4:00am 14 16 mph 1022.7mb 63f 58f
3:54am 14 16 mph 1022.8mb 63f 58f
3:48am 13 16 mph 1022.9mb 63f 58f
3:42am 13 15 mph 1022.9mb 63f 58f
3:36am 11 14 mph 1023mb 63f 58f
3:30am 13 15 mph 1022.9mb 64f 58f
3:24am 13 15 mph 1022.8mb 64f 58f
3:18am 13 15 mph 1022.9mb 64f 58f
3:12am 14 15 mph 1023mb 64f 58f
3:06am 14 15 mph 1023mb 64f 58f
3:00am 14 16 mph 1022.9mb 64f 58f
2:54am 15 16 mph 1022.9mb 64f 58f
2:48am 14 16 mph 1022.8mb 64f 58f
2:42am 14 16 mph 1022.8mb 64f 58f
2:36am 14 16 mph 1022.9mb 64f 58f
2:24am 14 16 mph 1022.9mb 64f 58f
2:18am 14 16 mph 1022.8mb 64f 58f
2:12am 13 15 mph 1022.8mb 64f 58f
2:06am 14 15 mph 1022.8mb 64f 58f
2:00am 14 16 mph 1022.9mb 64f 58f
1:54am 13 15 mph 1023mb 64f 58f
1:48am 14 15 mph 1023.2mb 64f 58f
1:42am 13 14 mph 1023.2mb 64f 58f
1:36am 14 16 mph 1023.2mb 64f 58f
1:30am 14 16 mph 1023.1mb 64f 58f
1:18am 14 16 mph 1023.2mb 64f 59f
1:12am 14 15 mph 1023.2mb 64f 59f
1:06am 13 15 mph 1023.2mb 64f 59f
1:00am 10 13 mph 1023.4mb 64f 59f
12:54am 13 15 mph 1023.4mb 65f 59f
12:48am 13 16 mph 1023.4mb 65f 59f
12:42am 14 16 mph 1023.4mb 65f 59f
12:36am 13 15 mph 1023.3mb 65f 60f
12:30am 14 16 mph 1023.2mb 65f 59f
12:24am 11 14 mph 1023.4mb 65f 59f
12:18am 13 14 mph 1023.5mb 65f 59f
12:12am 11 15 mph 1023.6mb 65f 60f
12:06am 13 14 mph 1023.6mb 65f 59f
12:00am 13 14 mph 1023.6mb 65f 59f
Sun 11/19 11:54pm 13 15 mph 1023.6mb 65f 59f
11:48pm 14 16 mph 1023.6mb 65f 59f
11:42pm 14 16 mph 1023.5mb 65f -
11:36pm 16 17 mph 1023.5mb 65f -
11:30pm 15 17 mph 1023.5mb 65f 60f
11:24pm 14 16 mph 1023.6mb 65f 60f
11:18pm 14 16 mph 1023.8mb 65f 60f
11:12pm 11 14 mph 1023.9mb 65f 60f
11:06pm 11 14 mph 1024mb 65f 60f
11:00pm 11 15 mph 1023.9mb 65f 60f
10:54pm 13 15 mph 1024mb 65f 60f
10:48pm 13 15 mph 1024.1mb 65f 60f
10:42pm 13 15 mph 1024.2mb 65f 60f
10:36pm 14 16 mph 1024.1mb 65f 60f
10:30pm 13 14 mph 1024.2mb 65f 60f
10:24pm 11 14 mph 1024.2mb 65f 60f
10:18pm 11 15 mph 1024.1mb 65f 61f
10:12pm 13 15 mph 1024.2mb 65f 61f
10:06pm 13 14 mph 1024.2mb 65f 61f
10:00pm 13 15 mph 1024.2mb 65f 61f
9:54pm 13 15 mph 1024.2mb 65f 61f
9:48pm 13 16 mph 1024.2mb 65f 61f
9:42pm 14 15 mph 1024.1mb 65f 61f
9:36pm 9 14 mph 1024.2mb 65f 60f
9:30pm 8 15 mph 1024.3mb 65f 60f
9:24pm 10 14 mph 1024.3mb 65f 61f
9:18pm 7 10 mph 1024.4mb 65f 60f
9:12pm 8 13 mph 1024.4mb 65f 60f
9:06pm 10 14 mph 1024.3mb 65f 60f
9:00pm 7 11 mph 1024.3mb 65f 60f
8:54pm 9 13 mph 1024.2mb 65f 60f
8:48pm 7 13 mph 1024.2mb 65f 60f
8:42pm 8 13 mph 1024.2mb 65f 60f
8:36pm 9 11 mph 1024.2mb 65f 60f
8:30pm 8 10 mph 1024.1mb 65f 60f
8:24pm 8 11 mph 1024.1mb 65f 60f
8:18pm 8 13 mph 1024.1mb 65f 60f
8:12pm 9 13 mph 1024mb 65f 60f
8:06pm 7 11 mph 1024mb 65f 60f
8:00pm 7 10 mph 1024mb 65f 60f
7:54pm 8 10 mph 1024mb 65f 60f
7:48pm 7 11 mph 1024mb 65f 60f
7:42pm 9 13 mph 1024mb 65f 60f
7:36pm 8 14 mph 1023.9mb 65f 60f
7:30pm 7 11 mph 1024mb 65f 60f
7:24pm 8 11 mph 1023.9mb 65f 60f
7:18pm 9 14 mph 1023.9mb 65f 60f
7:12pm 7 14 mph 1023.8mb 65f 60f
7:06pm 10 14 mph 1023.7mb 65f 61f
7:00pm 9 13 mph 1023.5mb 65f 61f
6:54pm 8 13 mph 1023.6mb 66f 61f
6:48pm 7 13 mph 1023.5mb 66f 61f
6:42pm 9 14 mph 1023.5mb 66f 61f
6:36pm 8 9 mph 1023.4mb 66f 61f
6:30pm 7 9 mph 1023.3mb 66f 61f
6:24pm 7 11 mph 1023.2mb 66f 61f
6:18pm 8 10 mph 1023.2mb 66f 61f
6:12pm 7 9 mph 1023.1mb 66f 61f
6:06pm 6 7 mph 1023.2mb 66f 61f
6:00pm 5 7 mph 1023.2mb 66f 61f
5:54pm 6 8 mph 1023.1mb 66f 61f
5:48pm 6 10 mph 1023.2mb 66f 61f
5:42pm 6 8 mph 1023.1mb 66f 62f
5:36pm 7 9 mph 1023.1mb 66f 61f
5:30pm 6 10 mph 1023.2mb 66f 62f
5:24pm 6 9 mph 1023.1mb 66f 61f
5:18pm 7 9 mph 1023.1mb 66f 62f
5:12pm 7 11 mph 1023mb 66f 62f
5:06pm 6 9 mph 1023mb 66f 62f
5:00pm 7 9 mph 1023mb 66f 62f
4:54pm 8 13 mph 1023mb 66f 62f
4:48pm 5 6 mph 1023.1mb 66f 62f
4:42pm 6 8 mph 1023.2mb 66f 62f
4:36pm 5 11 mph 1023.2mb 66f 62f
4:30pm 6 10 mph 1023.2mb 66f 62f
4:24pm 6 11 mph 1023.1mb 66f 62f
4:18pm 6 9 mph 1023.1mb 66f 62f
4:12pm 5 7 mph 1023.1mb 66f 63f
4:06pm 7 9 mph 1023.1mb 66f 63f
4:00pm 8 11 mph 1023mb 66f 63f
3:54pm 6 9 mph 1023mb 66f 63f
3:48pm 8 11 mph 1023.1mb 66f 62f
3:42pm 8 14 mph 1023mb 66f 62f
3:36pm 8 10 mph 1023mb 66f 62f
3:30pm 6 11 mph 1023mb 66f 62f
3:24pm 8 11 mph 1022.9mb 66f 62f
3:18pm 6 9 mph 1022.9mb 66f 62f
3:12pm 7 9 mph 1023.1mb 66f 61f
3:06pm 9 11 mph 1023.1mb 66f 61f
3:00pm 8 13 mph 1023.2mb 66f 61f
2:54pm 8 13 mph 1023.2mb 66f 61f
2:48pm 5 11 mph 1023.3mb 66f 61f
2:42pm 9 13 mph 1023.4mb 66f 61f
2:36pm 8 13 mph 1023.4mb 66f 61f
2:30pm 9 10 mph 1023.5mb 66f 61f
2:24pm 9 13 mph 1023.7mb 66f 60f
2:18pm 9 11 mph 1023.8mb 66f 61f
2:12pm 10 14 mph 1023.8mb 66f 61f
2:06pm 10 11 mph 1023.9mb 66f 60f
2:00pm 11 15 mph 1023.9mb 66f 60f
1:54pm 11 16 mph 1024mb 66f 60f
1:48pm 10 17 mph 1024mb 66f 60f
1:42pm 14 17 mph 1024.1mb 65f 60f
1:36pm 14 18 mph 1024.2mb 65f 60f
1:30pm 14 17 mph 1024.2mb 65f 60f
1:24pm 13 16 mph 1024.3mb 65f 60f
1:18pm 11 16 mph 1024.4mb 65f 60f
1:12pm 13 16 mph 1024.5mb 65f 59f
1:06pm 13 15 mph 1024.7mb 65f 59f
1:00pm 11 17 mph 1024.8mb 65f 59f
12:54pm 14 16 mph 1024.7mb 65f 59f
12:48pm 15 17 mph 1025mb 65f 59f
12:42pm 13 16 mph 1025.1mb 65f 59f
12:36pm 13 18 mph 1025.2mb 65f 58f
12:30pm 14 17 mph 1025.4mb 65f 58f
12:24pm 14 17 mph 1025.5mb 65f 58f
12:18pm 14 17 mph 1025.5mb 65f 58f
12:12pm 16 17 mph 1025.6mb 65f 58f
12:06pm 16 21 mph 1025.8mb 65f 58f
12:00pm 14 18 mph 1025.9mb 65f 58f
11:54am 13 22 mph 1026mb 65f 58f
11:48am 16 20 mph 1026.2mb 65f 58f
11:42am 16 22 mph 1026.2mb 65f 58f
11:36am 13 20 mph 1026.3mb 65f 57f
11:30am 14 21 mph 1026.4mb 65f 57f
11:24am 18 23 mph 1026.6mb 65f -
11:18am 16 23 mph 1026.7mb 65f -
11:12am 14 23 mph 1026.8mb 65f -
11:06am 17 22 mph 1026.9mb 65f -
11:00am 15 21 mph 1027mb 65f -
10:54am 20 23 mph 1027.1mb 65f -
10:48am 17 23 mph 1027.2mb 65f -
10:42am 18 23 mph 1027.3mb 65f -
10:36am 21 25 mph 1027.4mb 65f -
10:30am 20 24 mph 1027.4mb 65f -
10:24am 18 23 mph 1027.5mb 65f -
10:18am 17 25 mph 1027.6mb 65f -
10:12am 20 24 mph 1027.6mb 65f -
10:06am 18 25 mph 1027.6mb 65f -
10:00am 22 25 mph 1027.6mb 65f -
9:54am 22 26 mph 1027.5mb 65f -
9:48am 21 28 mph 1027.5mb 65f -
9:42am 22 29 mph 1027.4mb 65f -
9:36am 21 26 mph 1027.4mb 65f -
9:30am 25 29 mph 1027.4mb 65f -
9:24am 22 28 mph 1027.3mb 65f -
9:18am 24 30 mph 1027.3mb - -
9:12am 20 28 mph 1027.2mb 65f -
9:06am 22 26 mph 1027.1mb 65f -
9:00am 24 28 mph 1027.1mb 65f -
8:54am 20 29 mph 1027mb 65f -
8:48am 22 30 mph 1027mb 65f -
7:54am 24 32 mph 1026.3mb 66f -
7:48am 18 26 mph 1026.1mb 66f -
Fri 11/17 12:30pm 14 16 mph 1016.5mb 73f 77f
12:24pm 15 20 mph 1016.6mb 72f 77f
12:18pm 16 22 mph 1016.5mb 72f 77f
12:12pm 20 22 mph 1016.5mb 72f 77f
12:06pm 18 21 mph 1016.5mb 72f 77f
12:00pm 20 21 mph 1016.6mb 72f 77f
11:54am 17 21 mph 1016.7mb 72f 77f
11:48am 17 21 mph 1016.8mb 72f 77f
11:42am 17 20 mph 1016.9mb 72f 77f
11:36am 16 21 mph 1017mb 72f 77f
11:30am 17 20 mph 1017mb 72f 77f
11:24am 15 18 mph 1017.1mb 72f 76f
11:18am 15 22 mph 1017.2mb 72f 76f
11:12am 17 21 mph 1017.3mb 72f 77f
11:06am 15 17 mph 1017.4mb 72f 76f
11:00am 16 20 mph 1017.4mb 72f 76f
10:54am 15 18 mph 1017.5mb 72f 76f
10:48am 14 17 mph 1017.7mb 72f 76f
10:42am 16 21 mph 1017.8mb 72f 76f
10:36am 15 17 mph 1017.8mb 72f 76f
10:30am 15 18 mph 1017.9mb 72f 76f
10:24am 15 17 mph 1017.9mb 72f 76f
10:18am 15 17 mph 1018mb 72f 76f
10:12am 14 20 mph 1018mb 72f 76f
10:06am 16 18 mph 1018mb 72f 76f
10:00am 16 17 mph 1018mb 72f 76f
9:54am 15 18 mph 1018.1mb 72f 76f
9:48am 13 16 mph 1018.1mb 72f 76f
9:42am 14 16 mph 1018.1mb 72f 76f
9:36am 14 16 mph 1018.2mb 71f 76f
9:30am 13 14 mph 1018.3mb 71f 76f
9:24am 10 11 mph 1018.4mb 71f 75f
9:18am 9 13 mph 1018.3mb 71f 75f
9:12am 10 13 mph 1018.3mb 71f 75f
9:06am 11 14 mph 1018.4mb 71f 75f
9:00am 7 10 mph 1018.4mb 71f 74f
8:54am 7 9 mph 1018.5mb 71f 74f
8:48am 5 6 mph 1018.4mb 71f 73f
8:42am 5 6 mph 1018.3mb 71f 73f
8:36am 5 6 mph 1018.3mb 71f 73f
8:30am 5 7 mph 1018.3mb 71f 73f
8:24am 6 7 mph 1018.3mb 71f 73f
8:18am 6 7 mph 1018.2mb 71f 72f
8:12am 6 7 mph 1018.2mb 71f 72f
8:06am 6 7 mph 1018.1mb 71f 72f
8:00am 7 8 mph 1018mb 71f 72f
7:54am 7 8 mph 1018mb 71f 72f
7:48am 7 7 mph 1018mb 71f 72f
7:42am 7 8 mph 1018mb 71f 72f
7:36am 8 9 mph 1017.9mb 71f 72f
7:30am 7 8 mph 1017.9mb 71f 72f
7:24am 7 8 mph 1017.9mb 71f 72f
7:18am 7 8 mph 1017.7mb 71f 72f
7:12am 7 7 mph 1017.6mb 71f 72f
7:06am 7 8 mph 1017.5mb 71f 72f
7:00am 7 7 mph 1017.5mb 71f 72f
6:54am 7 8 mph 1017.5mb 71f 72f
6:48am 6 8 mph 1017.4mb 71f 72f